Sagarejo

Georgia     41˚44′12″N   45˚19′33″E
temp.,
°C
wind,
m/s
gust,
m/s
humid.,
%
clouds,
%
prec.,
mm/h
press.,
hPa
HPBL,
m
1 december, tue
tue101:00+2˚se2397100 0.3 1024237
04:00+2˚sse2297100 0.8 1024174
07:00+2˚sse2297100 0.3 1024154
10:00+3˚s2294100 0.4 1024177
13:00+3˚sse1183100 0.1 1023367
16:00+4˚s117497 0.2 1022536
19:00+2˚w008819 0.0 102437
22:00+1˚nne118510 0.0 102522
2 december, wed
wed201:00+1˚nne118315 0.0 102622
04:00+1˚n118343 0.0 102622
07:00+1˚nnw118271 0.0 102622
10:00+4˚ne006642 0.0 102675
13:00+6˚s21620 0.0 1024416
16:00+7˚s21630 0.0 1024493
19:00+3˚ese00820 0.0 102622
22:00+2˚ne11850 0.0 102722
3 december, thu
thu301:00+1˚ne11860 0.0 102822
04:00+1˚ne118816 0.0 102822
07:00ne009033 0.0 102822
10:00+3˚ese118130 0.0 1029143
13:00+5˚sse227465 0.0 1027573
16:00+4˚sse227782 0.0 1026483
19:00+3˚s0184100 0.0 102823
22:00+3˚e118299 0.0 102949
4 december, fri
fri401:00+3˚e1184100 0.0 102968
04:00+3˚e1188100 0.0 1028112
07:00+2˚se1192100 0.0 102867
10:00+3˚ese118799 0.0 1028242
13:00+4˚se2281100 0.0 1026394
16:00+4˚sse227796 0.1 1025480
19:00+2˚sse119492 0.1 1026110
22:00+2˚e119393 0.1 102797
5 december, sat
sat501:00+2˚ese129398 0.1 1027105
04:00+1˚se009699 0.1 102625
07:00+1˚nnw119387 0.0 102573
10:00+3˚sse007557 0.0 1025128
13:00+5˚s22679 0.0 1023688
16:00+5˚s226634 0.0 1023699
19:00+3˚s117885 0.0 1024102
22:00+3˚ese118189 0.0 102644